[[{"header":{"parameterUnit":"m.s-1","parameterCategory":2,"la1":30.2991,"la2":30.254,"lo1":-89.0895,"lo2":-89.0444,"dy":0.0017,"dx":0.0017,"nx":28,"ny":28,"refTime":"2025-02-10T03:00:00:Z","depth":"0","parameterNumber":2,"parameterNumberName":"U-component_of_CURRENTS"},"data":[0,0,0,0,0,0,0,0,0,0,0,0,0,0,0,0,0,0,0,0,0,0,0,0,0,0,0,0,0,0,0,0,0,0,0,0,0,0,0,0,0,0,0,0,0,0,0,0,0,0,0,0,0,0,0,0,0,0,-0.3037,-0.3039,0,-0.32,-0.3202,-0.3203,-0.3261,-0.3262,-0.3262,-0.3262,-0.3276,-0.3276,-0.3276,0,0,0,0,0,0,0,0,0,0,0,0,0,-0.2778,-0.2781,-0.3037,-0.3039,-0.3042,-0.32,-0.3202,-0.3203,-0.3261,-0.3262,-0.3262,-0.3262,-0.3275,-0.3276,-0.3276,0,0,0,0,0,0,0,0,0,0,0,0,0,-0.2902,-0.2783,-0.3036,-0.3097,-0.3104,-0.32,-0.3202,-0.3203,-0.3261,-0.3262,-0.3262,-0.3262,-0.3275,-0.3276,-0.3276,-0.3271,0,0,-0.3277,-0.3277,0,0,0,0,0,0,0,0,-0.2895,-0.2911,-0.3085,-0.3093,-0.3102,-0.3218,-0.3116,-0.3222,-0.3261,-0.3193,-0.3262,-0.3262,-0.3248,-0.325,-0.327,-0.3272,-0.3273,-0.3277,-0.3277,-0.3277,-0.3277,0,0,0,0,0,0,0,-0.2887,-0.2904,-0.3093,-0.3088,-0.3098,-0.3118,-0.3134,-0.3136,-0.3207,-0.3199,-0.3205,-0.3237,-0.325,-0.327,-0.3271,-0.3273,-0.3277,-0.3277,-0.3277,-0.3277,-0.3245,-0.3244,0,0,0,0,0,0,-0.2884,-0.2896,-0.3088,-0.3099,-0.3007,-0.3123,-0.3141,-0.3174,-0.3211,-0.322,-0.3237,-0.324,-0.327,-0.3271,-0.3271,-0.3242,-0.3277,-0.3277,-0.3277,-0.3246,-0.3245,-0.3244,0,0,0,0,0,0,-0.2878,-0.2899,-0.3081,-0.3007,-0.3033,-0.3128,-0.3163,-0.3177,-0.3205,-0.3243,-0.3248,-0.3252,-0.327,-0.3271,-0.3267,-0.3243,-0.3277,-0.3278,-0.3247,-0.3246,-0.3244,-0.3198,0,0,0,0,0,0,-0.2869,-0.2896,-0.2909,-0.3008,-0.3038,-0.3127,-0.3164,-0.318,-0.3228,-0.3232,-0.3257,-0.3259,-0.327,-0.3267,-0.3267,-0.3244,-0.3278,-0.3248,-0.3247,-0.3245,-0.3201,-0.3195,-0.319,0,0,0,0,0,-0.2859,-0.2882,-0.2908,-0.2932,-0.3056,-0.3127,-0.3142,-0.3205,-0.3228,-0.3231,-0.3248,-0.3258,-0.3255,-0.3266,-0.3267,-0.3244,-0.3249,-0.3247,-0.3245,-0.3203,-0.3196,-0.319,0,0,0,0,0,0,-0.2784,-0.2894,-0.2924,-0.2981,-0.3044,-0.314,-0.3159,-0.3204,-0.3225,-0.3222,-0.3251,-0.3253,-0.3241,-0.3248,-0.326,-0.3228,-0.3251,-0.3249,-0.3219,-0.3213,-0.3207,-0.318,-0.3278,0,0,0,0,0,-0.2773,-0.2812,-0.2914,-0.2956,-0.2984,-0.3068,-0.3105,-0.3147,-0.3191,-0.3203,-0.3224,-0.3232,-0.3233,-0.3228,-0.3231,-0.3214,-0.3198,-0.3197,-0.3192,-0.3187,-0.3165,-0.3121,-0.311,-0.3236,-0.3236,-0.3236,0,0,-0.2758,-0.2824,-0.2847,-0.2941,-0.2992,-0.3021,-0.3088,-0.3138,-0.315,-0.3196,-0.3198,-0.3217,-0.3226,-0.3209,-0.3203,-0.321,-0.3144,-0.3184,-0.318,-0.316,-0.3118,-0.3105,-0.3094,-0.3235,-0.3235,-0.3235,0,0,-0.2742,-0.2799,-0.282,-0.2862,-0.2942,-0.2989,-0.3002,-0.3086,-0.3106,-0.3121,-0.3151,-0.3146,-0.3163,-0.3154,-0.3153,-0.3115,-0.3123,-0.313,-0.3074,-0.3033,-0.3021,-0.3011,-0.2979,-0.2967,-0.3121,-0.3121,-0.3121,0,-0.2715,-0.2763,-0.2834,-0.2857,-0.2886,-0.2968,-0.298,-0.301,-0.3079,-0.3082,-0.3106,-0.3115,-0.3124,-0.3092,-0.3085,-0.3099,-0.3091,-0.31,-0.3024,-0.3014,-0.3004,-0.2974,-0.2961,-0.3118,-0.3119,-0.3119,-0.3119,0,-0.2713,-0.2742,-0.2754,-0.2804,-0.2835,-0.2861,-0.2917,-0.2935,-0.297,-0.3002,-0.2992,-0.3007,-0.301,-0.3014,-0.3041,-0.2984,-0.3006,-0.3028,-0.3039,-0.2988,-0.296,-0.2947,-0.3115,-0.3116,-0.3116,-0.3117,0,0,-0.2668,-0.2739,-0.2738,-0.2747,-0.2807,-0.2835,-0.2837,-0.2868,-0.2872,-0.2896,-0.289,-0.2881,-0.2904,-0.2903,-0.2931,-0.2895,-0.2829,-0.2936,-0.2935,-0.29,-0.2748,-0.2672,-0.2652,-0.285,-0.2848,-0.2846,-0.2757,0,-0.2639,-0.2661,-0.2704,-0.2704,-0.2716,-0.2768,-0.2771,-0.2798,-0.2824,-0.2833,-0.2829,-0.2832,-0.2857,-0.2867,-0.283,-0.2854,-0.2793,-0.2851,-0.2804,-0.2802,-0.2737,-0.2632,-0.2539,-0.2444,-0.2745,-0.2743,-0.2741,0,-0.261,-0.2633,-0.2632,-0.2663,-0.2673,-0.2678,-0.2695,-0.271,-0.2729,-0.2749,-0.2737,-0.2765,-0.273,-0.2758,-0.27,-0.2748,-0.2725,-0.2722,-0.2719,-0.2648,-0.27,-0.2541,-0.2409,-0.2385,-0.2721,-0.2723,-0.2724,0,-0.2538,-0.2573,-0.2569,-0.2579,-0.2629,-0.2627,-0.2647,-0.2674,-0.2684,-0.2692,-0.2702,-0.2676,-0.2674,-0.2635,-0.2639,-0.2673,-0.2574,-0.2619,-0.2507,-0.2504,-0.2409,-0.24,-0.2236,-0.2517,-0.2517,-0.2517,-0.2518,0,-0.2488,-0.2479,-0.2536,-0.2532,-0.2522,-0.2574,-0.2564,-0.2588,-0.2616,-0.2612,-0.2649,-0.2635,-0.2644,-0.2613,-0.2602,-0.2506,-0.253,-0.2453,-0.2452,-0.2391,-0.2382,-0.2347,-0.2378,-0.2514,-0.2515,-0.2515,-0.2516,0,-0.2402,-0.2443,-0.2438,-0.2481,-0.2489,-0.2477,-0.2516,-0.2515,-0.2557,-0.2552,-0.2553,-0.2591,-0.2549,-0.2537,-0.2485,-0.2445,-0.2319,-0.2329,-0.226,-0.2249,-0.2111,-0.2144,-0.1967,-0.1913,-0.2174,-0.2171,-0.2169,0,-0.2359,-0.235,-0.2381,-0.2376,-0.2391,-0.2396,-0.2402,-0.2462,-0.247,-0.2515,-0.2503,-0.2486,-0.2446,-0.2346,-0.2274,-0.2181,-0.2194,-0.2036,-0.205,-0.2036,-0.2074,-0.2105,-0.2076,-0.1921,-0.1917,-0.1913,-0.191,0,-0.2263,-0.2277,-0.2276,-0.2272,-0.2273,-0.2278,-0.2297,-0.2301,-0.2369,-0.2376,-0.2373,-0.2346,-0.2266,-0.2133,-0.2022,-0.1965,-0.1974,-0.196,-0.1952,-0.1835,-0.1848,-0.182,-0.2076,-0.188,-0.1883,-0.1885,-0.1887,-0.1888,-0.2176,-0.2155,-0.2159,-0.2141,-0.215,-0.2141,-0.2102,-0.2149,-0.2144,-0.2129,-0.2193,-0.2121,-0.2032,-0.186,-0.1795,-0.165,-0.1728,-0.1605,-0.1641,-0.167,-0.1607,-0.1786,-0.159,-0.1591,-0.1592,-0.1593,-0.1594,0,-0.2053,-0.2043,-0.2027,-0.2002,-0.1963,-0.2011,-0.2011,-0.1961,-0.1916,-0.1942,-0.1912,-0.1826,-0.1671,-0.1607,-0.1457,-0.1367,-0.1354,-0.134,-0.1372,-0.1355,-0.1499,-0.1478,-0.1238,-0.1238,-0.1239,-0.1239,-0.1239,-0.1239,-0.1985,-0.1925,-0.1921,-0.1813,-0.1797,-0.1702,-0.1674,-0.1633,-0.1624,-0.1549,-0.1527,-0.155,-0.1487,-0.1462,-0.1307,-0.1234,-0.1215,-0.1161,-0.12,-0.1334,-0.1363,-0.1391,-0.1375,-0.1117,-0.1117,-0.1006,-0.1005,-0.1005]},{"header":{"parameterUnit":"m.s-1","parameterCategory":2,"la1":30.2991,"la2":30.254,"lo1":-89.0895,"lo2":-89.0444,"dy":0.0017,"dx":0.0017,"nx":28,"ny":28,"refTime":"2025-02-10T03:00:00:Z","depth":"0","parameterNumber":3,"parameterNumberName":"V-component_of_CURRENTS"},"data":[0,0,0,0,0,0,0,0,0,0,0,0,0,0,0,0,0,0,0,0,0,0,0,0,0,0,0,0,0,0,0,0,0,0,0,0,0,0,0,0,0,0,0,0,0,0,0,0,0,0,0,0,0,0,0,0,0,0,-0.0668,-0.0668,0,-0.0609,-0.0608,-0.0607,-0.055,-0.055,-0.0549,-0.0549,-0.0455,-0.0453,-0.0451,0,0,0,0,0,0,0,0,0,0,0,0,0,-0.0637,-0.0639,-0.0668,-0.0668,-0.0667,-0.0609,-0.0608,-0.0607,-0.055,-0.055,-0.0549,-0.0548,-0.0456,-0.0453,-0.0451,0,0,0,0,0,0,0,0,0,0,0,0,0,-0.062,-0.0639,-0.0668,-0.0633,-0.063,-0.0609,-0.0608,-0.0606,-0.055,-0.055,-0.0549,-0.0548,-0.0457,-0.0454,-0.0451,-0.0448,0,0,-0.0442,-0.044,0,0,0,0,0,0,0,0,-0.0621,-0.0621,-0.0639,-0.0636,-0.0632,-0.0588,-0.0562,-0.0552,-0.0551,-0.0579,-0.0549,-0.0548,-0.0498,-0.0492,-0.048,-0.0444,-0.044,-0.0441,-0.044,-0.0438,-0.0437,0,0,0,0,0,0,0,-0.0622,-0.0623,-0.0643,-0.0639,-0.0634,-0.0588,-0.0585,-0.056,-0.0541,-0.0576,-0.0572,-0.0569,-0.0496,-0.0483,-0.0477,-0.0438,-0.0441,-0.0439,-0.0437,-0.0436,-0.038,-0.038,0,0,0,0,0,0,-0.064,-0.0625,-0.0644,-0.0641,-0.0627,-0.059,-0.0586,-0.0601,-0.0542,-0.0533,-0.057,-0.0567,-0.0489,-0.0481,-0.0474,-0.0459,-0.0438,-0.0435,-0.0434,-0.038,-0.038,-0.0381,0,0,0,0,0,0,-0.064,-0.0643,-0.0647,-0.0631,-0.0629,-0.0592,-0.0608,-0.06,-0.0587,-0.0538,-0.0528,-0.0564,-0.0488,-0.0478,-0.0455,-0.0455,-0.0434,-0.0431,-0.0379,-0.038,-0.038,-0.0435,0,0,0,0,0,0,-0.064,-0.0644,-0.0655,-0.0634,-0.0631,-0.0638,-0.0609,-0.06,-0.0587,-0.0582,-0.053,-0.0521,-0.0486,-0.046,-0.0452,-0.0451,-0.0429,-0.0379,-0.038,-0.038,-0.0432,-0.0437,-0.0441,0,0,0,0,0,-0.0639,-0.0668,-0.0657,-0.0658,-0.065,-0.0639,-0.0633,-0.0601,-0.0588,-0.0585,-0.0553,-0.0522,-0.0458,-0.0458,-0.0449,-0.0446,-0.0379,-0.0379,-0.038,-0.0431,-0.0436,-0.0441,0,0,0,0,0,0,-0.0662,-0.0664,-0.0651,-0.068,-0.0659,-0.063,-0.063,-0.0608,-0.0581,-0.0577,-0.0529,-0.0518,-0.0497,-0.0468,-0.047,-0.0432,-0.0412,-0.0411,-0.0454,-0.0458,-0.0462,-0.0464,-0.0427,0,0,0,0,0,-0.0673,-0.0694,-0.0678,-0.0697,-0.0694,-0.0661,-0.0652,-0.0632,-0.0607,-0.0594,-0.0559,-0.0523,-0.0494,-0.0474,-0.0446,-0.0428,-0.039,-0.0419,-0.0424,-0.0427,-0.0422,-0.038,-0.0379,-0.0383,-0.0383,-0.0383,0,0,-0.0687,-0.069,-0.0701,-0.0702,-0.0686,-0.0685,-0.0654,-0.0649,-0.064,-0.059,-0.0571,-0.0539,-0.0494,-0.0472,-0.046,-0.0447,-0.0405,-0.0428,-0.0432,-0.0424,-0.038,-0.038,-0.0379,-0.0383,-0.0383,-0.0383,0,0,-0.0726,-0.0729,-0.0757,-0.0744,-0.073,-0.0708,-0.071,-0.0684,-0.0664,-0.0646,-0.0606,-0.0577,-0.0534,-0.0498,-0.0476,-0.0487,-0.0433,-0.0477,-0.0492,-0.0452,-0.0451,-0.045,-0.0398,-0.0391,-0.0474,-0.0474,-0.0474,0,-0.0738,-0.0772,-0.0758,-0.0773,-0.0765,-0.0723,-0.0736,-0.0711,-0.0677,-0.0661,-0.0648,-0.0579,-0.0545,-0.0507,-0.0509,-0.0495,-0.0458,-0.0479,-0.0457,-0.0455,-0.0453,-0.0399,-0.0392,-0.0477,-0.0477,-0.0477,-0.0476,0,-0.0792,-0.0809,-0.0824,-0.0828,-0.0816,-0.0821,-0.0787,-0.0771,-0.0743,-0.0711,-0.0673,-0.0625,-0.0581,-0.0566,-0.0539,-0.0505,-0.0479,-0.0472,-0.0445,-0.0456,-0.0399,-0.039,-0.0481,-0.048,-0.0479,-0.0479,0,0,-0.0839,-0.086,-0.0861,-0.0867,-0.0845,-0.0842,-0.083,-0.0802,-0.0786,-0.0744,-0.0719,-0.0667,-0.0632,-0.0604,-0.0563,-0.0522,-0.0477,-0.0491,-0.0488,-0.0441,-0.0373,-0.0307,-0.0291,-0.0465,-0.0464,-0.0463,-0.0338,0,-0.0878,-0.0926,-0.0916,-0.0935,-0.0952,-0.0906,-0.0896,-0.086,-0.0818,-0.0781,-0.072,-0.0683,-0.0648,-0.0627,-0.0582,-0.0499,-0.0456,-0.051,-0.0368,-0.0363,-0.0305,-0.0279,-0.0248,-0.0129,-0.0329,-0.0327,-0.0326,0,-0.0928,-0.0952,-0.0993,-0.0991,-0.0992,-0.099,-0.0955,-0.0938,-0.0871,-0.0837,-0.0782,-0.0729,-0.0655,-0.0636,-0.0496,-0.0531,-0.046,-0.0397,-0.039,-0.0302,-0.0281,-0.0151,-0.0105,-0.0007,-0.0312,-0.0313,-0.0314,0,-0.097,-0.0998,-0.1033,-0.1033,-0.1027,-0.1027,-0.1013,-0.0959,-0.0936,-0.0869,-0.0837,-0.0748,-0.0691,-0.0596,-0.0458,-0.0479,-0.0296,-0.0313,-0.0186,-0.018,-0.0109,-0.0099,0.0049,-0.0227,-0.0227,-0.0227,-0.0228,0,-0.1016,-0.1039,-0.1058,-0.1075,-0.1099,-0.1074,-0.1072,-0.104,-0.0985,-0.0948,-0.087,-0.0811,-0.0679,-0.0557,-0.0454,-0.0268,-0.029,-0.0171,-0.0139,-0.0127,-0.012,0.0004,0.0035,-0.0223,-0.0224,-0.0225,-0.0225,0,-0.1055,-0.1071,-0.1109,-0.1122,-0.1124,-0.114,-0.1119,-0.1109,-0.1049,-0.0997,-0.0977,-0.0843,-0.0672,-0.052,-0.0338,-0.0247,-0.0014,-0.0032,-0.0016,0.0016,0.021,0.0235,0.0438,0.05,0.0122,0.0124,0.0127,0,-0.1078,-0.1108,-0.1147,-0.1171,-0.1179,-0.1193,-0.1198,-0.1151,-0.1128,-0.1005,-0.0978,-0.0807,-0.0663,-0.0355,-0.016,0.0055,0.0112,0.0194,0.0153,0.0249,0.0301,0.0316,0.0353,0.0226,0.0229,0.0231,0.0233,0,-0.1114,-0.1132,-0.1166,-0.1222,-0.1245,-0.126,-0.1256,-0.1245,-0.1169,-0.1095,-0.0957,-0.0831,-0.052,-0.0244,0.0039,0.0159,0.028,0.0246,0.0341,0.0403,0.0435,0.05,0.0119,0.0253,0.0251,0.0249,0.0248,0.0248,-0.1128,-0.1167,-0.1216,-0.1263,-0.1294,-0.1311,-0.1305,-0.1268,-0.1207,-0.1061,-0.0944,-0.0708,-0.0341,0.0076,0.0216,0.0506,0.0461,0.0568,0.0596,0.0606,0.066,0.0334,0.0502,0.0502,0.0501,0.0501,0.0501,0,-0.1142,-0.1192,-0.1247,-0.1301,-0.1335,-0.1339,-0.1325,-0.128,-0.1188,-0.1023,-0.0851,-0.0411,-0.0046,0.0275,0.068,0.0831,0.0843,0.0902,0.0917,0.0939,0.0655,0.0652,0.0867,0.0867,0.0867,0.0867,0.0867,0.0867,-0.1151,-0.1214,-0.125,-0.1314,-0.1346,-0.1352,-0.1335,-0.124,-0.1109,-0.0808,-0.0536,-0.0324,0.0133,0.0739,0.109,0.1123,0.1224,0.1237,0.1287,0.1067,0.1037,0.1007,0.1014,0.1301,0.1301,0.1555,0.1558,0.156]}],[{"header":{"parameterUnit":"m.s-1","parameterCategory":2,"la1":30.2991,"la2":30.254,"lo1":-89.0895,"lo2":-89.0444,"dy":0.0017,"dx":0.0017,"nx":28,"ny":28,"refTime":"2025-02-10T03:00:00:Z","depth":"2","parameterNumber":2,"parameterNumberName":"U-component_of_CURRENTS"},"data":[0,0,0,0,0,0,0,0,0,0,0,0,0,0,0,0,0,0,0,0,0,0,0,0,0,0,0,0,0,0,0,0,0,0,0,0,0,0,0,0,0,0,0,0,0,0,0,0,0,0,0,0,0,0,0,0,0,0,-0.2364,-0.2364,0,-0.2374,-0.2374,-0.2374,-0.2383,-0.2383,-0.2384,-0.2384,-0.2367,-0.2366,-0.2365,0,0,0,0,0,0,0,0,0,0,0,0,0,-0.228,-0.2282,-0.2364,-0.2364,-0.2365,-0.2374,-0.2374,-0.2374,-0.2383,-0.2383,-0.2384,-0.2384,-0.2367,-0.2366,-0.2365,0,0,0,0,0,0,0,0,0,0,0,0,0,-0.2304,-0.2283,-0.2364,-0.2372,-0.2373,-0.2374,-0.2374,-0.2374,-0.2383,-0.2383,-0.2384,-0.2384,-0.2367,-0.2366,-0.2365,-0.235,0,0,-0.2362,-0.2362,0,0,0,0,0,0,0,0,-0.2303,-0.2307,-0.237,-0.2371,-0.2372,-0.2379,-0.2338,-0.2365,-0.2383,-0.2377,-0.2384,-0.2384,-0.2369,-0.2368,-0.2367,-0.235,-0.2349,-0.2362,-0.2361,-0.2361,-0.2361,0,0,0,0,0,0,0,-0.2302,-0.2307,-0.2366,-0.2371,-0.2372,-0.235,-0.2354,-0.2343,-0.2369,-0.2378,-0.2379,-0.2383,-0.237,-0.2368,-0.2367,-0.2349,-0.2362,-0.2361,-0.236,-0.236,-0.2367,-0.2368,0,0,0,0,0,0,-0.2308,-0.2306,-0.2366,-0.2367,-0.234,-0.2351,-0.2356,-0.2375,-0.237,-0.237,-0.2382,-0.2383,-0.237,-0.2368,-0.2366,-0.237,-0.2361,-0.236,-0.2359,-0.2367,-0.2368,-0.2368,0,0,0,0,0,0,-0.2306,-0.2314,-0.2366,-0.2336,-0.2342,-0.2353,-0.2374,-0.2375,-0.2381,-0.2374,-0.2373,-0.2388,-0.237,-0.2367,-0.2363,-0.2368,-0.2359,-0.2358,-0.2366,-0.2367,-0.2368,-0.2363,0,0,0,0,0,0,-0.2304,-0.2313,-0.2325,-0.2338,-0.2344,-0.2373,-0.2374,-0.2375,-0.2383,-0.2384,-0.2378,-0.2377,-0.237,-0.2365,-0.2362,-0.2367,-0.2358,-0.2364,-0.2366,-0.2368,-0.2362,-0.2364,-0.2366,0,0,0,0,0,-0.2301,-0.2315,-0.2326,-0.2333,-0.2362,-0.2373,-0.2374,-0.2381,-0.2383,-0.2387,-0.2383,-0.2377,-0.2373,-0.2364,-0.2361,-0.2365,-0.2364,-0.2366,-0.2367,-0.2362,-0.2364,-0.2366,0,0,0,0,0,0,-0.2283,-0.2318,-0.233,-0.2355,-0.2367,-0.2376,-0.238,-0.2384,-0.2383,-0.2387,-0.2376,-0.2374,-0.2376,-0.2374,-0.2364,-0.2376,-0.2372,-0.2373,-0.2369,-0.2371,-0.2373,-0.2361,-0.2357,0,0,0,0,0,-0.2286,-0.2306,-0.2333,-0.235,-0.2361,-0.2371,-0.2375,-0.2384,-0.2387,-0.2388,-0.2384,-0.2383,-0.2381,-0.2378,-0.2378,-0.2374,-0.235,-0.2381,-0.2383,-0.2384,-0.2375,-0.2341,-0.2337,-0.2375,-0.2375,-0.2375,0,0,-0.2279,-0.2303,-0.2313,-0.2347,-0.2357,-0.2368,-0.2374,-0.2389,-0.2393,-0.2385,-0.2386,-0.2386,-0.2382,-0.2383,-0.2385,-0.2381,-0.2363,-0.2386,-0.2387,-0.2377,-0.2342,-0.2338,-0.2334,-0.2376,-0.2376,-0.2375,0,0,-0.227,-0.2304,-0.2315,-0.2331,-0.2358,-0.2369,-0.2375,-0.2393,-0.2398,-0.2402,-0.2399,-0.2395,-0.2399,-0.2387,-0.2384,-0.2393,-0.2374,-0.2411,-0.2404,-0.2371,-0.2366,-0.2362,-0.2329,-0.2322,-0.241,-0.241,-0.241,0,-0.2259,-0.2283,-0.2316,-0.2331,-0.2338,-0.237,-0.2374,-0.2387,-0.2398,-0.2394,-0.2407,-0.2398,-0.2395,-0.2376,-0.2389,-0.2392,-0.2376,-0.2392,-0.2369,-0.2365,-0.2361,-0.2328,-0.232,-0.241,-0.241,-0.241,-0.241,0,-0.2256,-0.2276,-0.2284,-0.2316,-0.233,-0.2342,-0.2369,-0.2382,-0.2396,-0.24,-0.2397,-0.2392,-0.2383,-0.2392,-0.2394,-0.2371,-0.2371,-0.2374,-0.2356,-0.2356,-0.2322,-0.2314,-0.241,-0.241,-0.241,-0.241,0,0,-0.2221,-0.2271,-0.2272,-0.2282,-0.2324,-0.2331,-0.235,-0.2362,-0.2365,-0.238,-0.2368,-0.2369,-0.237,-0.2367,-0.2367,-0.2346,-0.2307,-0.2355,-0.2353,-0.2308,-0.2236,-0.2169,-0.2154,-0.2309,-0.2308,-0.2307,-0.2224,0,-0.2202,-0.2219,-0.2251,-0.226,-0.2269,-0.2307,-0.2318,-0.2337,-0.2354,-0.2357,-0.2353,-0.2349,-0.2361,-0.2359,-0.2339,-0.2324,-0.2287,-0.233,-0.2256,-0.2253,-0.2181,-0.2142,-0.2009,-0.1918,-0.2216,-0.2214,-0.2213,0,-0.218,-0.2197,-0.2202,-0.2233,-0.224,-0.2252,-0.2272,-0.2287,-0.2307,-0.2321,-0.2317,-0.2326,-0.2304,-0.2316,-0.226,-0.2292,-0.2259,-0.2241,-0.2237,-0.2167,-0.217,-0.1968,-0.1892,-0.22,-0.2201,-0.2202,-0.2203,0,-0.2124,-0.2156,-0.2156,-0.2168,-0.2213,-0.2218,-0.2239,-0.2267,-0.2278,-0.2292,-0.2302,-0.2284,-0.2276,-0.2239,-0.2216,-0.2237,-0.215,-0.2167,-0.2065,-0.2061,-0.1925,-0.1911,-0.2098,-0.2098,-0.2098,-0.2099,-0.2099,0,-0.2085,-0.2083,-0.2132,-0.2133,-0.2133,-0.2179,-0.2182,-0.2207,-0.2237,-0.2238,-0.2273,-0.2264,-0.2259,-0.2224,-0.2195,-0.21,-0.2123,-0.2042,-0.2024,-0.1922,-0.1909,-0.2143,-0.2149,-0.2096,-0.2096,-0.2097,-0.2097,0,-0.2017,-0.2052,-0.2053,-0.2096,-0.2107,-0.2105,-0.215,-0.2153,-0.2199,-0.2201,-0.2206,-0.2236,-0.2188,-0.2165,-0.2101,-0.2057,-0.1984,-0.194,-0.1823,-0.1792,-0.1923,-0.1931,-0.1808,-0.1805,-0.1802,-0.1799,-0.1797,0,-0.1981,-0.1976,-0.2012,-0.2013,-0.203,-0.2045,-0.2056,-0.2115,-0.2125,-0.2172,-0.2162,-0.2146,-0.2098,-0.1989,-0.1911,-0.181,-0.1887,-0.1634,-0.1637,-0.1893,-0.1888,-0.19,-0.1911,-0.1461,-0.1456,-0.1452,-0.1449,0,-0.1903,-0.1919,-0.1922,-0.1928,-0.1937,-0.1947,-0.1971,-0.1977,-0.2041,-0.2047,-0.2037,-0.2005,-0.1923,-0.1759,-0.1651,-0.1584,-0.1644,-0.1554,-0.182,-0.1564,-0.156,-0.1559,-0.1581,-0.1416,-0.1419,-0.1422,-0.1424,-0.1425,-0.1833,-0.1818,-0.1826,-0.1819,-0.1835,-0.1828,-0.1792,-0.1831,-0.1821,-0.1795,-0.1855,-0.1756,-0.1718,-0.1475,-0.1373,-0.1298,-0.1413,-0.1348,-0.1362,-0.1378,-0.1362,-0.1354,-0.1168,-0.117,-0.1172,-0.1173,-0.1174,0,-0.1729,-0.1722,-0.1715,-0.1698,-0.1666,-0.1715,-0.1711,-0.1653,-0.1595,-0.1599,-0.1557,-0.1369,-0.1245,-0.1214,-0.1045,-0.0996,-0.1004,-0.0952,-0.0971,-0.1004,-0.1033,-0.1002,-0.0711,-0.071,-0.0708,-0.0707,0,0,-0.1672,-0.1622,-0.1617,-0.1524,-0.1515,-0.1425,-0.1394,-0.1334,-0.1304,-0.1201,-0.1146,-0.12,-0.1197,-0.0971,-0.0898,-0.0781,-0.0889,-0.0738,-0.111,-0.1168,-0.1196,-0.126,-0.1248,0,0,0,0,0]},{"header":{"parameterUnit":"m.s-1","parameterCategory":2,"la1":30.2991,"la2":30.254,"lo1":-89.0895,"lo2":-89.0444,"dy":0.0017,"dx":0.0017,"nx":28,"ny":28,"refTime":"2025-02-10T03:00:00:Z","depth":"2","parameterNumber":3,"parameterNumberName":"V-component_of_CURRENTS"},"data":[0,0,0,0,0,0,0,0,0,0,0,0,0,0,0,0,0,0,0,0,0,0,0,0,0,0,0,0,0,0,0,0,0,0,0,0,0,0,0,0,0,0,0,0,0,0,0,0,0,0,0,0,0,0,0,0,0,0,-0.0516,-0.0516,0,-0.0461,-0.046,-0.0459,-0.0421,-0.0421,-0.0421,-0.0421,-0.0328,-0.0325,-0.0323,0,0,0,0,0,0,0,0,0,0,0,0,0,-0.0493,-0.0494,-0.0517,-0.0516,-0.0515,-0.0461,-0.046,-0.0459,-0.0421,-0.0421,-0.0421,-0.0421,-0.0328,-0.0326,-0.0323,0,0,0,0,0,0,0,0,0,0,0,0,0,-0.0476,-0.0494,-0.0517,-0.0491,-0.0488,-0.0461,-0.046,-0.0459,-0.0422,-0.0421,-0.0421,-0.0421,-0.0329,-0.0326,-0.0323,-0.0306,0,0,-0.0312,-0.031,0,0,0,0,0,0,0,0,-0.0477,-0.0477,-0.0495,-0.0493,-0.049,-0.0449,-0.0417,-0.0406,-0.0422,-0.0446,-0.0421,-0.0421,-0.0366,-0.0359,-0.0348,-0.0301,-0.0297,-0.0311,-0.0309,-0.0308,-0.0307,0,0,0,0,0,0,0,-0.0478,-0.0478,-0.0493,-0.0495,-0.0491,-0.0449,-0.0447,-0.0415,-0.0406,-0.0443,-0.0441,-0.0437,-0.0364,-0.0352,-0.0345,-0.0296,-0.0312,-0.0308,-0.0306,-0.0305,-0.0228,-0.0228,0,0,0,0,0,0,-0.0493,-0.048,-0.0495,-0.0492,-0.0484,-0.045,-0.0448,-0.0461,-0.0407,-0.0399,-0.0437,-0.0435,-0.0358,-0.035,-0.0342,-0.0316,-0.0308,-0.0305,-0.0303,-0.0228,-0.0228,-0.0228,0,0,0,0,0,0,-0.0494,-0.0496,-0.0497,-0.0484,-0.0482,-0.0452,-0.0466,-0.046,-0.0449,-0.0403,-0.0394,-0.0432,-0.0357,-0.0347,-0.0317,-0.0312,-0.0303,-0.03,-0.0228,-0.0228,-0.0228,-0.0266,0,0,0,0,0,0,-0.0493,-0.0497,-0.0508,-0.0486,-0.0483,-0.0485,-0.0466,-0.0459,-0.0447,-0.0444,-0.0396,-0.0387,-0.0356,-0.0322,-0.0313,-0.0307,-0.0297,-0.0228,-0.0228,-0.0228,-0.0265,-0.0267,-0.027,0,0,0,0,0,-0.0493,-0.0518,-0.0509,-0.051,-0.0501,-0.0486,-0.048,-0.0456,-0.0448,-0.0444,-0.0413,-0.0388,-0.0316,-0.0319,-0.0309,-0.0302,-0.0228,-0.0228,-0.0228,-0.0264,-0.0267,-0.027,0,0,0,0,0,0,-0.0514,-0.0516,-0.0506,-0.053,-0.0508,-0.048,-0.048,-0.046,-0.0433,-0.0433,-0.0388,-0.0376,-0.0349,-0.0322,-0.0327,-0.0281,-0.0268,-0.0266,-0.0299,-0.0302,-0.0304,-0.031,-0.0294,0,0,0,0,0,-0.0525,-0.0543,-0.0525,-0.0541,-0.0538,-0.0508,-0.0498,-0.0482,-0.0456,-0.0445,-0.0409,-0.0374,-0.0341,-0.032,-0.0289,-0.0263,-0.023,-0.0252,-0.0255,-0.0257,-0.0255,-0.0207,-0.0205,-0.0228,-0.0228,-0.0228,0,0,-0.0536,-0.0539,-0.0548,-0.0546,-0.0532,-0.0527,-0.0502,-0.0496,-0.0484,-0.0438,-0.0416,-0.0382,-0.0337,-0.0308,-0.0293,-0.0285,-0.0233,-0.0257,-0.0259,-0.0256,-0.0207,-0.0205,-0.0203,-0.0228,-0.0228,-0.0228,0,0,-0.0568,-0.0573,-0.0596,-0.0583,-0.0568,-0.0547,-0.0548,-0.052,-0.0502,-0.0477,-0.0441,-0.0405,-0.0359,-0.032,-0.0296,-0.0293,-0.0251,-0.0286,-0.0297,-0.0252,-0.0249,-0.0247,-0.0202,-0.0195,-0.0284,-0.0284,-0.0284,0,-0.0579,-0.0606,-0.0595,-0.0606,-0.0597,-0.056,-0.0567,-0.0543,-0.0504,-0.0485,-0.0478,-0.0399,-0.0362,-0.0314,-0.0314,-0.0297,-0.0267,-0.029,-0.0255,-0.0251,-0.0248,-0.0203,-0.0195,-0.0286,-0.0286,-0.0285,-0.0285,0,-0.0621,-0.0635,-0.0648,-0.0649,-0.0636,-0.0637,-0.0603,-0.0585,-0.0559,-0.0525,-0.0479,-0.0427,-0.0378,-0.036,-0.0335,-0.0292,-0.0276,-0.0266,-0.0248,-0.0248,-0.0201,-0.0192,-0.0288,-0.0288,-0.0287,-0.0287,0,0,-0.0661,-0.0676,-0.0678,-0.0681,-0.0659,-0.0653,-0.0636,-0.0602,-0.0584,-0.0539,-0.0508,-0.0447,-0.0413,-0.0384,-0.0342,-0.0299,-0.0249,-0.0277,-0.0273,-0.0234,-0.0147,-0.0114,-0.0101,-0.0235,-0.0233,-0.0232,-0.0123,0,-0.0691,-0.0728,-0.0718,-0.0729,-0.0741,-0.0699,-0.0683,-0.0645,-0.0603,-0.0562,-0.0498,-0.0456,-0.0423,-0.0401,-0.0351,-0.0272,-0.0227,-0.028,-0.0151,-0.0147,-0.0119,-0.009,-0.0106,-0.0008,-0.0114,-0.0113,-0.0112,0,-0.0731,-0.075,-0.078,-0.0772,-0.0772,-0.0767,-0.0729,-0.0708,-0.0639,-0.0605,-0.0546,-0.0494,-0.0416,-0.0399,-0.0261,-0.0297,-0.0228,-0.017,-0.0164,-0.0112,-0.0097,-0.0025,0.0012,-0.0096,-0.0097,-0.0098,-0.01,0,-0.0767,-0.0785,-0.0812,-0.081,-0.0799,-0.0797,-0.0781,-0.0725,-0.0702,-0.0632,-0.0605,-0.0507,-0.0455,-0.0358,-0.0233,-0.0248,-0.0081,-0.0086,0.0011,0.0014,0.0037,0.004,0.0005,0.0005,0.0004,0.0004,0.0004,0,-0.0804,-0.0821,-0.0835,-0.0849,-0.0867,-0.0841,-0.0836,-0.0802,-0.0748,-0.0716,-0.0634,-0.0581,-0.0443,-0.0332,-0.0231,-0.007,-0.0075,0.0021,0.0049,0.0023,0.0023,-0.0027,-0.0032,0.0008,0.0007,0.0007,0.0006,0,-0.0839,-0.085,-0.0881,-0.0888,-0.0891,-0.0905,-0.0886,-0.0875,-0.0819,-0.0774,-0.0756,-0.0624,-0.0472,-0.0325,-0.0148,-0.0061,0.008,0.0132,0.0094,0.0115,0.014,0.0132,0.025,0.0253,0.0254,0.0256,0.0257,0,-0.0859,-0.0884,-0.0918,-0.0941,-0.0949,-0.0962,-0.0967,-0.0921,-0.09,-0.0794,-0.0772,-0.0621,-0.0495,-0.0215,-0.0035,0.0163,0.0147,0.0252,0.0222,0.0153,0.0168,0.0157,0.0146,0.0238,0.0239,0.024,0.0241,0,-0.089,-0.0908,-0.0937,-0.0993,-0.1017,-0.1033,-0.1031,-0.1024,-0.0956,-0.0894,-0.0778,-0.067,-0.0399,-0.0168,0.0084,0.0191,0.0219,0.0276,0.0234,0.0173,0.0149,0.0161,0.015,0.0248,0.0248,0.0247,0.0247,0.0246,-0.0906,-0.0942,-0.0988,-0.1035,-0.1068,-0.109,-0.1088,-0.1059,-0.101,-0.0888,-0.0789,-0.0589,-0.0385,-0.0006,0.0163,0.032,0.0307,0.0341,0.0335,0.0329,0.0303,0.0284,0.0403,0.0403,0.0403,0.0404,0.0404,0,-0.0922,-0.0969,-0.1021,-0.1076,-0.1113,-0.112,-0.1114,-0.1076,-0.1004,-0.0868,-0.0726,-0.0468,-0.0213,0.0001,0.0256,0.0396,0.0372,0.0417,0.0352,0.0344,0.0338,0.0308,0.0412,0.0412,0.0413,0.0413,0,0,-0.0933,-0.0992,-0.1025,-0.1095,-0.113,-0.1147,-0.1136,-0.1055,-0.0944,-0.078,-0.0622,-0.0438,-0.0185,-0.0008,0.0169,0.0302,0.0285,0.0314,0.0294,0.019,0.0181,0.0284,0.023,0,0,0,0,0]}],[{"header":{"parameterUnit":"m.s-1","parameterCategory":2,"la1":30.2991,"la2":30.254,"lo1":-89.0895,"lo2":-89.0444,"dy":0.0017,"dx":0.0017,"nx":28,"ny":28,"refTime":"2025-02-10T03:00:00:Z","depth":"4","parameterNumber":2,"parameterNumberName":"U-component_of_CURRENTS"},"data":[0,0,0,0,0,0,0,0,0,0,0,0,0,0,0,0,0,0,0,0,0,0,0,0,0,0,0,0,0,0,0,0,0,0,0,0,0,0,0,0,0,0,0,0,0,0,0,0,0,0,0,0,0,0,0,0,0,0,-0.1485,-0.1485,0,-0.1459,-0.1458,-0.1458,-0.1462,-0.1463,-0.1463,-0.1463,-0.1503,-0.1503,-0.1504,0,0,0,0,0,0,0,0,0,0,0,0,0,-0.147,-0.1471,-0.1485,-0.1485,-0.1484,-0.1459,-0.1458,-0.1458,-0.1462,-0.1463,-0.1463,-0.1464,-0.1502,-0.1503,-0.1504,0,0,0,0,0,0,0,0,0,0,0,0,0,-0.1463,-0.1471,-0.1485,-0.1483,-0.1483,-0.1459,-0.1458,-0.1458,-0.1462,-0.1463,-0.1463,-0.1464,-0.1502,-0.1503,-0.1504,-0.1495,0,0,-0.1507,-0.1507,0,0,0,0,0,0,0,0,-0.1464,-0.1464,-0.1484,-0.1484,-0.1483,-0.1465,-0.1467,-0.1474,-0.1462,-0.147,-0.1463,-0.1464,-0.1496,-0.1497,-0.1489,-0.1497,-0.1499,-0.1507,-0.1507,-0.1508,-0.1508,0,0,0,0,0,0,0,-0.1464,-0.1465,-0.1474,-0.1484,-0.1483,-0.1461,-0.1461,-0.1468,-0.148,-0.1469,-0.1469,-0.1467,-0.1496,-0.1488,-0.149,-0.1499,-0.1507,-0.1507,-0.1508,-0.1508,-0.1555,-0.1555,0,0,0,0,0,0,-0.1471,-0.1465,-0.1475,-0.1473,-0.1475,-0.1461,-0.1461,-0.147,-0.1478,-0.148,-0.1466,-0.1467,-0.1486,-0.1489,-0.1492,-0.155,-0.1508,-0.1508,-0.1509,-0.1554,-0.1555,-0.1556,0,0,0,0,0,0,-0.1471,-0.1473,-0.1476,-0.1468,-0.1467,-0.1461,-0.147,-0.1469,-0.1488,-0.1476,-0.1479,-0.1489,-0.1487,-0.1491,-0.152,-0.1549,-0.1509,-0.151,-0.1553,-0.1554,-0.1555,-0.1624,0,0,0,0,0,0,-0.1471,-0.1473,-0.1492,-0.1469,-0.1468,-0.1483,-0.1469,-0.1468,-0.1483,-0.1485,-0.1496,-0.1498,-0.1488,-0.1518,-0.1521,-0.155,-0.151,-0.1552,-0.1554,-0.1555,-0.1621,-0.1627,-0.1633,0,0,0,0,0,-0.1471,-0.1484,-0.1494,-0.1495,-0.1492,-0.1484,-0.1482,-0.1478,-0.1484,-0.1497,-0.1505,-0.15,-0.1528,-0.152,-0.1522,-0.1553,-0.1552,-0.1553,-0.1555,-0.1618,-0.1626,-0.1632,0,0,0,0,0,0,-0.1484,-0.1485,-0.1495,-0.151,-0.1511,-0.1486,-0.1497,-0.1495,-0.1509,-0.1523,-0.1512,-0.1515,-0.1547,-0.1539,-0.153,-0.1567,-0.1538,-0.154,-0.1585,-0.1592,-0.1598,-0.1594,-0.1511,0,0,0,0,0,-0.1498,-0.1514,-0.1509,-0.1524,-0.1531,-0.1522,-0.1524,-0.1526,-0.1526,-0.1534,-0.1541,-0.1547,-0.1549,-0.1565,-0.1564,-0.1592,-0.1562,-0.161,-0.1616,-0.1621,-0.1618,-0.1592,-0.1595,-0.1561,-0.1561,-0.1561,0,0,-0.1505,-0.1509,-0.1518,-0.1529,-0.1531,-0.1542,-0.1526,-0.1541,-0.1556,-0.1537,-0.1574,-0.1571,-0.1559,-0.1584,-0.1599,-0.1588,-0.1617,-0.1623,-0.1628,-0.1622,-0.1594,-0.1597,-0.16,-0.1562,-0.1562,-0.1561,0,0,-0.1511,-0.1538,-0.155,-0.156,-0.1575,-0.1573,-0.1587,-0.1589,-0.1604,-0.1632,-0.1617,-0.1631,-0.1649,-0.1638,-0.1634,-0.1672,-0.1645,-0.1682,-0.1719,-0.1694,-0.1697,-0.1699,-0.1671,-0.167,-0.1691,-0.1691,-0.1691,0,-0.1522,-0.1536,-0.1551,-0.1566,-0.1576,-0.1594,-0.1608,-0.1624,-0.1637,-0.1646,-0.166,-0.1666,-0.1668,-0.1671,-0.1689,-0.1687,-0.1667,-0.1696,-0.1702,-0.1703,-0.1704,-0.1675,-0.1673,-0.1695,-0.1694,-0.1694,-0.1694,0,-0.1525,-0.1553,-0.1563,-0.1593,-0.161,-0.1627,-0.1651,-0.1681,-0.1707,-0.1711,-0.1738,-0.1736,-0.1733,-0.1744,-0.1735,-0.1743,-0.1725,-0.1709,-0.1685,-0.1711,-0.1679,-0.1676,-0.17,-0.1698,-0.1697,-0.1696,0,0,-0.1505,-0.1555,-0.1562,-0.1582,-0.1628,-0.1636,-0.1682,-0.1705,-0.1726,-0.1762,-0.1775,-0.1794,-0.1793,-0.1787,-0.1779,-0.1773,-0.1772,-0.1757,-0.1754,-0.1732,-0.1719,-0.1618,-0.1604,-0.1762,-0.1762,-0.1761,-0.1697,0,-0.1503,-0.1532,-0.1561,-0.16,-0.1616,-0.1659,-0.1693,-0.1726,-0.1757,-0.1782,-0.1793,-0.1805,-0.181,-0.1816,-0.1813,-0.1777,-0.1765,-0.1791,-0.1695,-0.1691,-0.16,-0.1597,-0.176,-0.1694,-0.1693,-0.1693,-0.1692,0,-0.1488,-0.1513,-0.1547,-0.16,-0.1613,-0.1646,-0.1697,-0.1729,-0.1771,-0.1796,-0.1817,-0.1822,-0.1828,-0.1827,-0.1785,-0.1805,-0.177,-0.1743,-0.174,-0.1615,-0.1583,-0.1659,-0.1685,-0.1685,-0.1686,-0.1687,-0.1687,0,-0.1444,-0.1499,-0.1527,-0.1547,-0.1612,-0.1643,-0.1681,-0.1732,-0.1758,-0.1802,-0.182,-0.1827,-0.183,-0.1798,-0.1764,-0.1775,-0.1705,-0.1703,-0.1575,-0.1567,-0.1649,-0.1648,-0.166,-0.166,-0.166,-0.166,-0.1661,0,-0.1411,-0.1437,-0.1516,-0.1531,-0.1569,-0.1625,-0.1668,-0.1707,-0.1758,-0.1773,-0.1822,-0.1819,-0.1826,-0.1794,-0.1758,-0.1649,-0.1694,-0.1569,-0.1538,-0.168,-0.1683,-0.1647,-0.1646,-0.1658,-0.1659,-0.1659,-0.1659,0,-0.1349,-0.1403,-0.1441,-0.1521,-0.1549,-0.1577,-0.166,-0.1679,-0.1743,-0.1763,-0.1778,-0.1812,-0.1763,-0.1746,-0.1682,-0.1621,-0.1538,-0.1488,-0.164,-0.1621,-0.142,-0.1424,-0.1329,-0.1325,-0.1321,-0.1318,-0.1316,0,-0.1315,-0.133,-0.1423,-0.1448,-0.149,-0.1546,-0.1578,-0.1659,-0.1675,-0.1735,-0.1725,-0.172,-0.1721,-0.1541,-0.1548,-0.145,-0.1432,-0.1386,-0.1406,-0.1403,-0.1384,-0.1393,-0.1402,-0.131,-0.1309,-0.1308,-0.1307,0,-0.1244,-0.1294,-0.1325,-0.1379,-0.1425,-0.1461,-0.1514,-0.1515,-0.1589,-0.167,-0.1612,-0.1569,-0.1511,-0.1452,-0.1386,-0.1324,-0.1415,-0.1348,-0.1355,-0.1374,-0.1379,-0.1366,-0.1378,-0.1295,-0.1296,-0.1298,-0.1298,0,-0.1194,-0.1201,-0.1253,-0.1284,-0.1343,-0.1345,-0.1389,-0.1394,-0.1418,-0.149,-0.1465,-0.1457,-0.1492,-0.1385,-0.1326,-0.1255,-0.1232,-0.1189,-0.1204,-0.1218,-0.1211,-0.1203,-0.1023,0,0,0,0,0,-0.113,-0.1123,-0.115,-0.1173,-0.1228,-0.1254,-0.1327,-0.1372,-0.145,-0.1368,-0.141,-0.1348,-0.126,-0.1262,-0.1158,-0.127,-0.1239,-0.1145,-0.12,-0.1226,-0.124,-0.1242,0,0,0,0,0,0,-0.1086,-0.1107,-0.1109,-0.1071,-0.1066,-0.1102,-0.1141,-0.1198,-0.116,-0.1245,-0.1197,-0.1262,-0.119,-0.1283,-0.1126,-0.1124,-0.1129,-0.1154,-0.115,-0.1218,-0.1231,-0.1242,-0.1249,0,0,0,0,0]},{"header":{"parameterUnit":"m.s-1","parameterCategory":2,"la1":30.2991,"la2":30.254,"lo1":-89.0895,"lo2":-89.0444,"dy":0.0017,"dx":0.0017,"nx":28,"ny":28,"refTime":"2025-02-10T03:00:00:Z","depth":"4","parameterNumber":3,"parameterNumberName":"V-component_of_CURRENTS"},"data":[0,0,0,0,0,0,0,0,0,0,0,0,0,0,0,0,0,0,0,0,0,0,0,0,0,0,0,0,0,0,0,0,0,0,0,0,0,0,0,0,0,0,0,0,0,0,0,0,0,0,0,0,0,0,0,0,0,0,-0.0363,-0.0363,0,-0.0338,-0.0338,-0.0338,-0.0328,-0.0329,-0.0329,-0.0329,-0.0269,-0.0267,-0.0266,0,0,0,0,0,0,0,0,0,0,0,0,0,-0.0335,-0.0336,-0.0363,-0.0363,-0.0363,-0.0338,-0.0338,-0.0338,-0.0328,-0.0329,-0.0329,-0.0329,-0.027,-0.0268,-0.0265,0,0,0,0,0,0,0,0,0,0,0,0,0,-0.0331,-0.0336,-0.0363,-0.0356,-0.0355,-0.0338,-0.0338,-0.0337,-0.0328,-0.0329,-0.0329,-0.0329,-0.027,-0.0268,-0.0265,-0.0244,0,0,-0.0257,-0.0256,0,0,0,0,0,0,0,0,-0.0332,-0.0332,-0.0357,-0.0357,-0.0356,-0.0338,-0.0306,-0.0305,-0.0328,-0.0338,-0.0329,-0.0329,-0.0289,-0.0285,-0.0279,-0.0241,-0.0238,-0.0257,-0.0255,-0.0254,-0.0253,0,0,0,0,0,0,0,-0.0332,-0.0333,-0.0352,-0.0357,-0.0356,-0.0331,-0.0331,-0.0305,-0.0311,-0.0337,-0.0336,-0.0335,-0.0288,-0.0281,-0.0277,-0.0238,-0.0257,-0.0255,-0.0253,-0.0252,-0.019,-0.0189,0,0,0,0,0,0,-0.0341,-0.0334,-0.0353,-0.0352,-0.0345,-0.0331,-0.0332,-0.0342,-0.0312,-0.0308,-0.0335,-0.0335,-0.0286,-0.028,-0.0275,-0.0253,-0.0254,-0.0252,-0.025,-0.019,-0.019,-0.0189,0,0,0,0,0,0,-0.034,-0.0343,-0.0354,-0.0342,-0.0342,-0.0332,-0.0344,-0.0342,-0.0341,-0.0311,-0.0306,-0.0337,-0.0286,-0.0279,-0.0259,-0.025,-0.0251,-0.0248,-0.019,-0.019,-0.0189,-0.0205,0,0,0,0,0,0,-0.034,-0.0343,-0.0354,-0.0343,-0.0343,-0.035,-0.0344,-0.0341,-0.034,-0.034,-0.0311,-0.0306,-0.0285,-0.0263,-0.0256,-0.0247,-0.0246,-0.019,-0.019,-0.019,-0.0205,-0.0205,-0.0206,0,0,0,0,0,-0.0339,-0.0358,-0.0355,-0.0358,-0.0359,-0.035,-0.0347,-0.034,-0.034,-0.034,-0.0322,-0.0307,-0.0257,-0.0261,-0.0253,-0.0242,-0.019,-0.019,-0.019,-0.0204,-0.0205,-0.0206,0,0,0,0,0,0,-0.0353,-0.0358,-0.0356,-0.0376,-0.0364,-0.0349,-0.0354,-0.0344,-0.033,-0.0334,-0.0304,-0.0297,-0.0276,-0.0259,-0.0264,-0.0225,-0.0221,-0.0219,-0.0235,-0.0236,-0.0236,-0.0239,-0.0244,0,0,0,0,0,-0.036,-0.0377,-0.0368,-0.0383,-0.0382,-0.0368,-0.0364,-0.0358,-0.0344,-0.0339,-0.0316,-0.0293,-0.0267,-0.0254,-0.023,-0.0208,-0.0183,-0.0197,-0.0198,-0.0199,-0.0196,-0.015,-0.0146,-0.0189,-0.0189,-0.0189,0,0,-0.0369,-0.0375,-0.0383,-0.0386,-0.0381,-0.0379,-0.0367,-0.0368,-0.036,-0.0333,-0.0319,-0.0295,-0.0263,-0.0239,-0.0227,-0.0225,-0.0175,-0.0199,-0.02,-0.0196,-0.0149,-0.0145,-0.0141,-0.0189,-0.0189,-0.0189,0,0,-0.0392,-0.0402,-0.0419,-0.0413,-0.0409,-0.0395,-0.0397,-0.0382,-0.0373,-0.0355,-0.0331,-0.0302,-0.0271,-0.0238,-0.0219,-0.0209,-0.0182,-0.0207,-0.0209,-0.0164,-0.016,-0.0156,-0.0125,-0.0119,-0.0206,-0.0206,-0.0206,0,-0.0401,-0.0422,-0.0419,-0.0428,-0.0425,-0.0405,-0.041,-0.0394,-0.0371,-0.0357,-0.0357,-0.0294,-0.0267,-0.0222,-0.022,-0.0209,-0.0187,-0.0208,-0.0164,-0.016,-0.0156,-0.0125,-0.0117,-0.0207,-0.0207,-0.0207,-0.0207,0,-0.0428,-0.0443,-0.0453,-0.0457,-0.045,-0.0454,-0.0431,-0.0419,-0.0405,-0.0381,-0.0342,-0.0301,-0.0262,-0.0247,-0.023,-0.0183,-0.018,-0.0171,-0.0162,-0.0152,-0.0121,-0.0112,-0.0208,-0.0208,-0.0208,-0.0207,0,0,-0.0453,-0.047,-0.0474,-0.0479,-0.0467,-0.0465,-0.0451,-0.0425,-0.0413,-0.0379,-0.0353,-0.0299,-0.0274,-0.025,-0.0218,-0.0176,-0.0127,-0.0165,-0.0163,-0.0135,-0.0038,-0.005,-0.0042,-0.0112,-0.011,-0.0109,-0.0031,0,-0.0473,-0.0502,-0.0497,-0.0509,-0.0519,-0.0493,-0.0481,-0.0453,-0.0423,-0.0392,-0.0336,-0.0303,-0.0276,-0.0259,-0.0209,-0.0148,-0.0105,-0.0149,-0.0052,-0.0049,-0.006,-0.0032,-0.0104,-0.0025,-0.0023,-0.0021,-0.002,0,-0.0496,-0.0513,-0.0539,-0.0539,-0.054,-0.0541,-0.0516,-0.05,-0.0446,-0.0422,-0.037,-0.033,-0.0259,-0.0245,-0.0124,-0.0157,-0.01,-0.0052,-0.0047,-0.0046,-0.0045,-0.0034,-0.0004,-0.0006,-0.0007,-0.0008,-0.0009,0,-0.0517,-0.0536,-0.056,-0.0562,-0.056,-0.0563,-0.0556,-0.0515,-0.05,-0.0443,-0.0425,-0.0335,-0.0295,-0.0205,-0.0108,-0.0115,0.0019,0.0022,0.0069,0.0068,0.0061,0.0057,0.011,0.0109,0.0109,0.0109,0.0109,0,-0.0534,-0.0553,-0.0579,-0.0592,-0.0615,-0.0598,-0.0603,-0.0579,-0.054,-0.0519,-0.0448,-0.0408,-0.0284,-0.0195,-0.0107,0.0007,0.0024,0.0077,0.0094,0.0051,0.0044,0.0067,0.0061,0.0112,0.0111,0.0111,0.011,0,-0.0549,-0.0568,-0.06,-0.062,-0.063,-0.0648,-0.0651,-0.0646,-0.0607,-0.0576,-0.0563,-0.0455,-0.0338,-0.0215,-0.0063,0.0002,0.0112,0.0147,0.0087,0.0097,0.013,0.0122,0.0209,0.0209,0.021,0.021,0.021,0,-0.0556,-0.0579,-0.063,-0.0659,-0.0676,-0.07,-0.0714,-0.0687,-0.0674,-0.0602,-0.0584,-0.0473,-0.0391,-0.0177,-0.0056,0.0114,0.0134,0.0183,0.0166,0.0136,0.0144,0.0135,0.0127,0.0211,0.0211,0.0211,0.0211,0,-0.0566,-0.0596,-0.0626,-0.0693,-0.0729,-0.0755,-0.0769,-0.0762,-0.0718,-0.0688,-0.0583,-0.0469,-0.0334,-0.0173,-0.0042,0.0077,0.0148,0.0187,0.0187,0.0172,0.0139,0.0144,0.0136,0.0212,0.0212,0.0212,0.0212,0,-0.0574,-0.0606,-0.066,-0.071,-0.0764,-0.0792,-0.0795,-0.0764,-0.0741,-0.0653,-0.0619,-0.0468,-0.0374,-0.0192,-0.0071,0.0045,0.0071,0.0099,0.0104,0.0104,0.0046,-0.0012,0.0038,0,0,0,0,0,-0.0574,-0.0615,-0.0669,-0.0727,-0.0781,-0.0806,-0.0819,-0.0809,-0.077,-0.0699,-0.0652,-0.0522,-0.0322,-0.0229,-0.0113,-0.0083,0.0073,0.0054,0.0103,0.0218,0.0217,0.0165,0,0,0,0,0,0,-0.0577,-0.0635,-0.0666,-0.0729,-0.0767,-0.0815,-0.0825,-0.0801,-0.0745,-0.0691,-0.0577,-0.0506,-0.0308,-0.0385,-0.0113,-0.0078,-0.0035,0.0153,0.0155,0.0219,0.0218,0.0217,0.0163,0,0,0,0,0]}]]